EW8041 Weather Reports


Display with metric or nautical units.
time (UTC)temp
F
wind
direction
speed
MPH
gust
MPH
rain 1hr
in
rain 24hr
in
rain mn
in
humidity
%
barometer
mb
20210921150526 78 114 1.0 3.0 0.00 0.00 0.00 90 1016.0
20210921145527 78 107 2.0 4.0 0.00 0.00 0.00 92 1016.0
20210921144528 77 76 2.0 4.0 0.00 0.01 0.00 94 1015.9
20210921143529 76 105 1.0 3.0 0.00 0.02 0.00 95 1015.8
20210921142530 76 113 1.0 5.0 0.00 0.03 0.00 96 1016.0
20210921141531 76 53 4.0 6.0 0.00 0.03 0.00 94 1015.9
20210921140526 75 73 1.0 4.0 0.00 0.03 0.00 97 1015.6
20210921135515 75 315 0.0 3.0 0.00 0.03 0.00 97 1015.6
20210921134516 75 0.0 0.0 0.00 0.03 0.00 97 1015.6
20210921133525 75 119 1.0 3.0 0.00 0.03 0.00 96 1015.5
20210921132526 75 95 3.0 5.0 0.00 0.03 0.00 96 1015.5
20210921131522 75 149 1.0 3.0 0.00 0.03 0.00 96 1015.6
20210921130524 75 126 1.0 3.0 0.00 0.03 0.00 96 1015.4
20210921125525 76 139 2.0 3.0 0.00 0.03 0.00 96 1015.2
20210921124526 74 113 1.0 3.0 0.00 0.03 0.00 99 1015.2
20210921123528 72 85 1.0 4.0 0.00 0.03 0.00 99 1015.2
20210921122529 71 129 1.0 3.0 0.00 0.03 0.00 99 1015.2
20210921121530 71 203 0.0 3.0 0.00 0.04 0.00 99 1015.1
20210921120531 71 135 1.0 3.0 0.00 0.04 0.00 99 1015.2
20210921115526 71 225 0.0 1.0 0.00 0.05 0.00 99 1015.0
20210921114516 71 0.0 0.0 0.00 0.06 0.00 99 1015.0
20210921113517 71 0.0 0.0 0.00 0.07 0.00 99 1014.9
20210921112531 71 0.0 0.0 0.00 0.08 0.00 99 1014.7
20210921111522 71 0.0 0.0 0.00 0.08 0.00 99 1014.7
20210921110523 71 0.0 0.0 0.00 0.08 0.00 99 1014.6
20210921105519 71 0.0 0.0 0.00 0.08 0.00 99 1014.4
20210921104521 72 0.0 0.0 0.00 0.08 0.00 99 1014.4
20210921103522 72 90 0.0 1.0 0.00 0.08 0.00 99 1014.4
20210921102523 72 0.0 1.0 0.00 0.08 0.00 99 1014.3
20210921101525 72 193 0.0 2.0 0.00 0.08 0.00 99 1014.1
20210921100521 72 142 1.0 3.0 0.00 0.08 0.00 99 1014.1
20210921095522 72 0.0 0.0 0.00 0.08 0.00 99 1014.2
20210921094523 72 185 2.0 4.0 0.00 0.08 0.00 99 1014.2
20210921093524 72 111 1.0 3.0 0.00 0.08 0.00 99 1014.2
20210921092520 72 145 1.0 3.0 0.00 0.08 0.00 99 1013.9
20210921091515 72 0.0 0.0 0.00 0.09 0.00 99 1013.9
20210921090528 72 131 0.0 3.0 0.00 0.09 0.00 99 1013.8
20210921085524 73 107 1.0 3.0 0.00 0.09 0.00 99 1014.0
20210921084526 73 159 1.0 4.0 0.00 0.09 0.00 99 1013.9
20210921083527 73 149 1.0 4.0 0.00 0.09 0.00 99 1013.9
20210921082528 73 107 1.0 4.0 0.00 0.09 0.00 99 1014.0
20210921081530 73 105 3.0 5.0 0.00 0.09 0.00 99 1013.9
20210921080530 73 96 3.0 6.0 0.00 0.09 0.00 99 1013.7
20210921075532 73 122 2.0 5.0 0.00 0.09 0.00 99 1013.7
20210921074516 73 100 3.0 4.0 0.00 0.09 0.00 99 1013.8
20210921073517 73 125 1.0 3.0 0.00 0.09 0.00 99 1013.8
20210921072518 73 0.0 0.0 0.00 0.09 0.00 99 1014.0
20210921071519 73 112 1.0 3.0 0.00 0.09 0.00 99 1013.8
20210921070520 73 45 0.0 2.0 0.00 0.09 0.00 99 1013.7
20210921065522 73 0.0 1.0 0.00 0.09 0.00 99 1013.7
20210921064523 73 121 1.0 3.0 0.00 0.09 0.00 99 1013.6
20210921063525 73 0 0.0 2.0 0.00 0.09 0.00 99 1013.6
20210921062526 73 100 1.0 4.0 0.00 0.09 0.00 99 1013.7
20210921061527 73 95 1.0 5.0 0.00 0.09 0.00 99 1013.6
20210921060531 73 128 3.0 5.0 0.00 0.09 0.00 99 1013.6
20210921055530 73 84 2.0 4.0 0.00 0.09 0.00 99 1013.8
20210921054532 73 142 2.0 3.0 0.00 0.09 0.00 99 1013.7
20210921053515 73 130 3.0 7.0 0.00 0.09 0.00 99 1013.6
20210921052516 73 116 2.0 8.0 0.00 0.09 0.00 99 1013.8
20210921051518 73 139 3.0 4.0 0.00 0.09 0.00 99 1013.8
20210921050519 73 167 1.0 2.0 0.00 0.09 0.00 99 1013.9
20210921045520 73 155 2.0 4.0 0.00 0.09 0.09 99 1014.0
20210921044521 73 169 3.0 6.0 0.00 0.09 0.09 99 1013.7
20210921043522 73 164 3.0 7.0 0.00 0.09 0.09 99 1013.6
20210921042519 73 100 5.0 6.0 0.00 0.09 0.09 99 1013.5
20210921041520 73 75 4.0 7.0 0.00 0.09 0.09 99 1013.3
20210921040521 73 131 5.0 10.0 0.00 0.09 0.09 99 1013.4
20210921035522 73 158 5.0 10.0 0.00 0.09 0.09 99 1013.5
20210921034523 73 119 5.0 8.0 0.00 0.09 0.09 99 1013.5
20210921033525 73 114 6.0 9.0 0.00 0.09 0.09 99 1013.5
20210921032526 73 66 5.0 10.0 0.00 0.09 0.09 99 1013.5
20210921031527 73 115 5.0 10.0 0.00 0.09 0.09 99 1013.8
20210921030522 73 117 5.0 8.0 0.00 0.09 0.09 99 1014.0
20210921025518 72 232 5.0 8.0 0.00 0.09 0.09 99 1013.6
20210921024531 72 127 5.0 8.0 0.00 0.09 0.09 99 1013.8
20210921023527 72 122 6.0 9.0 0.00 0.09 0.09 99 1013.9
20210921022529 72 136 4.0 7.0 0.00 0.09 0.09 99 1013.9
20210921021525 72 111 4.0 6.0 0.00 0.09 0.09 99 1014.0
20210921020526 72 121 5.0 12.0 0.00 0.09 0.09 99 1014.0
20210921015528 72 138 4.0 7.0 0.00 0.09 0.09 99 1014.2
20210921014529 72 133 3.0 5.0 0.00 0.09 0.09 98 1014.2
20210921013531 72 129 3.0 5.0 0.00 0.09 0.09 98 1014.1
20210921012532 72 97 5.0 8.0 0.00 0.09 0.09 99 1013.8
20210921011515 72 112 3.0 7.0 0.00 0.09 0.09 99 1013.7
20210921010516 72 186 2.0 5.0 0.00 0.09 0.09 99 1013.6
20210921005517 72 110 3.0 5.0 0.00 0.09 0.09 99 1013.6
20210921004518 72 122 3.0 6.0 0.00 0.09 0.09 99 1013.6
20210921003520 72 144 4.0 8.0 0.00 0.09 0.09 99 1013.5
20210921002522 72 163 1.0 3.0 0.00 0.09 0.09 99 1013.5
20210921001523 72 113 4.0 6.0 0.00 0.09 0.09 99 1013.5
20210921000525 72 117 4.0 8.0 0.00 0.09 0.09 99 1013.2
20210920235526 72 151 4.0 7.0 0.00 0.09 0.09 98 1013.1
20210920234531 72 95 4.0 7.0 0.00 0.09 0.09 98 1013.0
20210920233528 73 174 4.0 8.0 0.00 0.09 0.09 98 1012.8
20210920232529 73 115 6.0 10.0 0.00 0.10 0.09 99 1012.8
20210920231530 73 135 3.0 8.0 0.00 0.10 0.09 99 1013.1
20210920230531 73 162 3.0 5.0 0.00 0.10 0.09 99 1013.3
20210920225515 73 151 3.0 6.0 0.00 0.10 0.09 99 1013.3
20210920224516 73 106 4.0 7.0 0.00 0.10 0.09 99 1013.3
20210920223517 73 115 4.0 8.0 0.00 0.10 0.09 99 1013.3
20210920222519 73 77 6.0 8.0 0.00 0.10 0.09 99 1013.0
20210920221520 74 103 5.0 9.0 0.00 0.10 0.09 98 1013.0
20210920220522 75 7.0 7.0 0.00 0.10 0.09 96 1013.1
20210920215518 76 115 5.0 10.0 0.00 0.10 0.09 93 1012.9
20210920214519 76 99 4.0 8.0 0.00 0.10 0.09 92 1012.8
20210920213520 77 226 4.0 6.0 0.00 0.10 0.09 91 1012.7
20210920212521 77 129 5.0 9.0 0.00 0.10 0.09 92 1012.6
20210920211522 77 121 5.0 7.0 0.00 0.10 0.09 92 1012.4
20210920210524 77 136 4.0 9.0 0.00 0.12 0.09 92 1012.5
20210920205525 77 143 6.0 9.0 0.00 0.14 0.09 93 1012.5
20210920204526 77 118 3.0 6.0 0.00 0.15 0.09 94 1012.5
20210920203522 77 114 4.0 8.0 0.00 0.15 0.09 93 1012.4
20210920202518 78 143 3.0 5.0 0.00 0.16 0.09 90 1012.5
20210920201526 81 107 4.0 6.0 0.00 0.17 0.09 88 1012.4
20210920200527 81 89 4.0 5.0 0.00 0.44 0.09 86 1012.6
20210920195528 81 132 3.0 6.0 0.00 0.55 0.09 85 1012.6
20210920194529 81 109 4.0 7.0 0.00 0.61 0.09 85 1012.7
20210920193531 81 157 4.0 7.0 0.00 0.63 0.09 85 1012.7
20210920192532 82 95 4.0 8.0 0.00 0.69 0.09 83 1012.8
20210920191515 83 127 3.0 6.0 0.00 0.72 0.09 84 1013.0
20210920190516 82 136 5.0 8.0 0.00 0.75 0.09 85 1013.3
20210920185518 81 140 4.0 6.0 0.00 0.75 0.09 84 1013.3
20210920184519 81 99 5.0 7.0 0.00 0.82 0.09 85 1013.5
20210920183520 82 113 4.0 7.0 0.00 1.03 0.09 83 1013.6
20210920182522 83 107 4.0 7.0 0.00 1.03 0.09 82 1013.7
20210920181517 82 130 3.0 5.0 0.00 1.06 0.09 84 1013.7
20210920180524 83 74 4.0 7.0 0.00 1.13 0.09 83 1013.9
20210920175526 82 122 3.0 8.0 0.00 1.17 0.09 84 1013.9
20210920174528 82 129 4.0 5.0 0.00 1.26 0.09 85 1014.0
20210920173529 82 101 3.0 6.0 0.00 1.42 0.09 88 1014.1
20210920172525 81 68 4.0 4.0 0.00 1.59 0.09 87 1014.2
20210920171526 81 62 4.0 5.0 0.00 1.87 0.09 88 1014.2
20210920170528 80 97 3.0 5.0 0.00 2.19 0.09 89 1014.4
20210920165529 81 96 4.0 7.0 0.00 2.47 0.09 87 1014.5
20210920164530 80 103 4.0 7.0 0.00 2.69 0.09 91 1014.6
20210920163532 78 127 3.0 6.0 0.00 3.09 0.09 95 1014.6
20210920162515 77 89 3.0 6.0 0.00 3.24 0.09 96 1014.7
20210920161516 78 99 4.0 9.0 0.00 3.27 0.09 95 1014.7
20210920160519 78 121 3.0 5.0 0.00 3.27 0.09 97 1014.9
20210920155519 77 117 4.0 6.0 0.00 3.28 0.09 97 1014.8
20210920154521 76 106 3.0 4.0 0.01 3.29 0.09 99 1014.9
20210920153522 75 97 2.0 4.0 0.02 3.30 0.09 99 1015.0
20210920152523 75 127 3.0 4.0 0.03 3.31 0.09 99 1015.1
20210920151524 74 113 0.0 2.0 0.03 3.32 0.09 99 1015.0